PROFILE

 METAR AND TAF INFORMATION
ADDS - METARS form results

(0825 UTC 19 August 2019)
http://aviationweather.gov/metar/data/
 
ENSG 190820Z 25006KT 9999 -SHRA BKN040 11/08 Q0998 RMK WIND 3806FT 19018KT
ENSG 190750Z 24008KT 9999 -SHRA BKN040 11/08 Q0998 RMK WIND 3806FT 19018KT

 AIRPORT MAP

 RUNWAY INFORMATION
Runway 06 Runway length 3150 ft Runway width 0 ft
Runway elevation 1619 ft Runway displaced threshold 0 ft Runway heading 0
Runway 24 Runway length 3150 ft Runway width 0 ft
Runway elevation 1634 ft Runway displaced threshold 0 ft Runway heading 0

 AIRPORT FREQUENCIES
Type AFIS Name Sogndal Frequency 119.3 MHZ
Type INFO Name Sogndal In Frequency 121.5 MHZ

 AIRPORT NEAR NAVIGATION AIDS
Type VOR-DME Name Sogndal Frequency 114200 KHZ